Weather History for Kansas City, MO

Change the Weather History Date:

Wednesday, August 21, 2013

  Actual Average Record
Temperature  
Mean Temperature 81 °F -  
Max Temperature 93 °F 86 °F 107 °F (2003)
Min Temperature 71 °F 68 °F 55 °F (2004)
Cooling Degree Days 16    
Growing Degree Days 31 (Base 50)    
Moisture  
Dew Point 65 °F    
Average Humidity 58    
Maximum Humidity 75    
Minimum Humidity 38    
Precipitation  
Precipitation 0.00 in - - ()
Sea Level Pressure  
Sea Level Pressure 30.01 in    
Wind  
Wind Speed 6 mph (SSW)    
Max Wind Speed 12 mph    
Max Gust Speed -    
Visibility 10 miles    
Events      
Averages and records for this station are not official NWS values.
T = Trace of Precipitation, MM = Missing Value Source: NWS Daily Summary

Daily Weather History Graph

Daily Weather History Graph

Search for Another Location

Airport:

Trip Planner

Search our weather history database for the weather conditions in past years. The results will help you decide how hot, cold, wet, or windy it might be!

Date:

Astronomy

Aug. 21, 2013 Rise Set
Actual Time 6:37 AM CDT 8:04 PM CDT
Civil Twilight 6:09 AM CDT 8:32 PM CDT
Nautical Twilight 5:35 AM CDT 9:06 PM CDT
Astronomical Twilight 4:59 AM CDT 9:42 PM CDT
Moon 8:15 PM CDT (8/21) 7:17 AM CDT (8/21)
Length of Visible Light 14h 23m
Length of Day
13h 27m
Waxing Gibbous, 99% of the Moon is Illuminated
Aug 21
Waxing Gibbous
Aug 28
Last Quarter
Sep 5
New
Sep 12
First Quarter
Sep 19
Full

Hourly Weather History & Observations

Time (CDT) Temp. Heat Index Dew Point Humidity Pressure Visibility Wind Dir Wind Speed Gust Speed Precip Events Conditions
12:54 AM 75.0 °F - 64.9 °F 71% 30.01 in 10.0 mi SSW 4.6 mph - N/A   Clear
1:54 AM 75.0 °F - 64.0 °F 69% 30.01 in 10.0 mi SW 6.9 mph - N/A   Clear
2:54 AM 73.0 °F - 63.0 °F 71% 30.01 in 10.0 mi South 5.8 mph - N/A   Clear
3:54 AM 73.0 °F - 63.0 °F 71% 30.01 in 10.0 mi South 6.9 mph - N/A   Clear
4:54 AM 73.0 °F - 63.0 °F 71% 30.00 in 10.0 mi SSW 8.1 mph - N/A   Clear
5:54 AM 71.1 °F - 63.0 °F 75% 30.01 in 10.0 mi SSW 5.8 mph - N/A   Clear
6:54 AM 72.0 °F - 62.1 °F 71% 30.03 in 10.0 mi SSW 4.6 mph - N/A   Clear
7:54 AM 73.9 °F - 62.1 °F 66% 30.04 in 10.0 mi SSW 8.1 mph - N/A   Clear
8:54 AM 78.1 °F - 64.0 °F 62% 30.05 in 10.0 mi SSW 4.6 mph - N/A   Clear
9:54 AM 82.0 °F 83.8 °F 64.9 °F 56% 30.05 in 10.0 mi SW 10.4 mph - N/A   Clear
10:54 AM 84.9 °F 87.1 °F 66.0 °F 53% 30.06 in 10.0 mi SSW 8.1 mph - N/A   Clear
11:54 AM 88.0 °F 89.6 °F 64.9 °F 46% 30.04 in 10.0 mi South 9.2 mph - N/A   Clear
12:54 PM 90.0 °F 91.3 °F 64.0 °F 42% 30.04 in 10.0 mi SSW 9.2 mph - N/A   Clear
1:54 PM 91.0 °F 92.6 °F 64.0 °F 41% 30.02 in 10.0 mi South 8.1 mph - N/A   Clear
2:54 PM 91.0 °F 92.6 °F 64.0 °F 41% 30.01 in 10.0 mi South 8.1 mph - N/A   Clear
3:54 PM 91.9 °F 92.9 °F 63.0 °F 38% 29.99 in 10.0 mi Variable 5.8 mph - N/A   Clear
4:54 PM 91.0 °F 93.0 °F 64.9 °F 42% 29.99 in 10.0 mi SSW 5.8 mph - N/A   Clear
5:54 PM 90.0 °F 92.4 °F 66.0 °F 45% 29.98 in 10.0 mi SSW 10.4 mph - N/A   Clear
6:54 PM 88.0 °F 90.3 °F 66.0 °F 48% 29.97 in 10.0 mi SSW 11.5 mph - N/A   Clear
7:54 PM 84.0 °F 86.5 °F 66.9 °F 56% 29.97 in 10.0 mi SSW 5.8 mph - N/A   Clear
8:54 PM 82.9 °F 85.8 °F 68.0 °F 60% 29.98 in 10.0 mi South 5.8 mph - N/A   Clear
9:54 PM 82.0 °F 84.9 °F 68.0 °F 62% 30.00 in 10.0 mi Calm Calm - N/A   Clear
10:54 PM 81.0 °F 83.8 °F 68.0 °F 65% 30.00 in 10.0 mi SSW 3.5 mph - N/A   Clear
11:54 PM 80.1 °F 82.7 °F 68.0 °F 67% 30.00 in 10.0 mi WSW 5.8 mph - N/A   Clear